Torna al catalogo

KUIPER-00532

AttivoComunicazioniVLEO
NORAD 69604·PAYLOAD·🇺🇸 United States

Lanciato Jun 17, 2026 da Guiana Space Centre

Loading…

Prossimi Passaggi (prossime 24 ore)

TLE

AggiornatoSource: CelesTrak SupGP

Epoca: Sep 14, 2026, 22:17 UTC

1 69604C 26140N   26257.92856482 -.00736500  00000+0 -53333-1 0  2571
2 69604  51.8907 327.4544 0003436 205.0698 190.0949 15.04204660    13

Traccia KUIPER-00532 in tempo reale con AllMySat

Download on the App Store